カタログに戻る

STARLINK-34588

運用中通信VLEO
NORAD 64729·PAYLOAD·🇺🇸 United States

打ち上げ Jul 2, 2025 から Cape Canaveral Space Force Station

Loading…

次のパス (今後24時間)

TLE

最新Source: CelesTrak SupGP

元期: Sep 14, 2026, 20:42 UTC

1 64729C 25144F   26257.86298611  .00035838  00000+0  10598-2 0  2575
2 64729  53.1617  21.8044 0001369  60.5655 273.9305 15.34343488    11

AllMySatでSTARLINK-34588をリアルタイム追跡

Download on the App Store